Year,Month,Day,Hour,Minute,Value (Times are PST for windspeed in km/hr)
2007,03,09,00,00,2.10
2007,03,09,00,01,1.90
2007,03,09,00,02,0.40
2007,03,09,00,03,0.50
2007,03,09,00,04,2.60
2007,03,09,00,05,1.80
2007,03,09,00,06,0.20
2007,03,09,00,07,0.50
2007,03,09,00,08,0.70
2007,03,09,00,09,1.10
2007,03,09,00,10,0.00
2007,03,09,00,11,0.00
2007,03,09,00,12,0.00
2007,03,09,00,13,0.00
2007,03,09,00,14,0.10
2007,03,09,00,15,0.00
2007,03,09,00,16,0.60
2007,03,09,00,17,1.30
2007,03,09,00,18,1.50
2007,03,09,00,19,1.90
2007,03,09,00,20,1.90
2007,03,09,00,21,3.20
2007,03,09,00,22,3.00
2007,03,09,00,23,2.70
2007,03,09,00,24,3.00
2007,03,09,00,25,2.40
2007,03,09,00,26,1.00
2007,03,09,00,27,0.60
2007,03,09,00,28,0.20
2007,03,09,00,29,1.60
2007,03,09,00,30,0.60
2007,03,09,00,31,0.10
2007,03,09,00,32,0.30
2007,03,09,00,33,0.20
2007,03,09,00,34,0.50
2007,03,09,00,35,0.90
2007,03,09,00,36,0.30
2007,03,09,00,37,0.00
2007,03,09,00,38,0.00
2007,03,09,00,39,0.00
2007,03,09,00,40,0.00
2007,03,09,00,41,0.00
2007,03,09,00,42,0.00
2007,03,09,00,43,0.00
2007,03,09,00,44,0.00
2007,03,09,00,45,0.00
2007,03,09,00,46,0.00
2007,03,09,00,47,0.00
2007,03,09,00,48,0.00
2007,03,09,00,49,0.00
2007,03,09,00,50,0.00
2007,03,09,00,51,0.00
2007,03,09,00,52,0.00
2007,03,09,00,53,0.80
2007,03,09,00,54,0.80
2007,03,09,00,55,0.50
2007,03,09,00,56,2.90
2007,03,09,00,57,2.90
2007,03,09,00,58,2.60
2007,03,09,00,59,3.50
2007,03,09,01,00,1.50
2007,03,09,01,01,0.00
2007,03,09,01,02,0.10
2007,03,09,01,03,0.50
2007,03,09,01,04,0.00
2007,03,09,01,05,0.00
2007,03,09,01,06,0.00
2007,03,09,01,07,0.00
2007,03,09,01,08,0.00
2007,03,09,01,09,0.00
2007,03,09,01,10,0.40
2007,03,09,01,11,2.10
2007,03,09,01,12,2.20
2007,03,09,01,13,0.30
2007,03,09,01,14,0.00
2007,03,09,01,15,0.10
2007,03,09,01,16,0.20
2007,03,09,01,17,1.40
2007,03,09,01,18,0.60
2007,03,09,01,19,0.00
2007,03,09,01,20,0.00
2007,03,09,01,21,0.30
2007,03,09,01,22,2.40
2007,03,09,01,23,0.80
2007,03,09,01,24,0.00
2007,03,09,01,25,0.00
2007,03,09,01,26,0.00
2007,03,09,01,27,0.30
2007,03,09,01,28,1.30
2007,03,09,01,29,0.70
2007,03,09,01,30,0.40
2007,03,09,01,31,0.10
2007,03,09,01,32,0.00
2007,03,09,01,33,0.10
2007,03,09,01,34,0.00
2007,03,09,01,35,0.00
2007,03,09,01,36,0.00
2007,03,09,01,37,0.10
2007,03,09,01,38,0.00
2007,03,09,01,39,0.00
2007,03,09,01,40,0.00
2007,03,09,01,41,0.00
2007,03,09,01,42,0.00
2007,03,09,01,43,0.00
2007,03,09,01,44,0.00
2007,03,09,01,45,0.00
2007,03,09,01,46,0.00
2007,03,09,01,47,0.00
2007,03,09,01,48,0.00
2007,03,09,01,49,0.00
2007,03,09,01,50,0.00
2007,03,09,01,51,0.00
2007,03,09,01,52,0.00
2007,03,09,01,53,0.00
2007,03,09,01,54,0.00
2007,03,09,01,55,0.00
2007,03,09,01,56,0.40
2007,03,09,01,57,0.60
2007,03,09,01,58,0.00
2007,03,09,01,59,0.50
2007,03,09,02,00,0.30
2007,03,09,02,01,0.40
2007,03,09,02,02,0.20
2007,03,09,02,03,0.00
2007,03,09,02,04,0.10
2007,03,09,02,05,0.00
2007,03,09,02,06,0.30
2007,03,09,02,07,0.00
2007,03,09,02,08,0.00
2007,03,09,02,09,0.00
2007,03,09,02,10,0.00
2007,03,09,02,11,0.00
2007,03,09,02,12,0.00
2007,03,09,02,13,0.00
2007,03,09,02,14,0.00
2007,03,09,02,15,0.00
2007,03,09,02,16,0.00
2007,03,09,02,17,0.00
2007,03,09,02,18,0.10
2007,03,09,02,19,0.20
2007,03,09,02,20,0.00
2007,03,09,02,21,0.20
2007,03,09,02,22,0.90
2007,03,09,02,23,0.00
2007,03,09,02,24,0.00
2007,03,09,02,25,0.00
2007,03,09,02,26,0.00
2007,03,09,02,27,0.00
2007,03,09,02,28,0.00
2007,03,09,02,29,0.00
2007,03,09,02,30,0.00
2007,03,09,02,31,0.00
2007,03,09,02,32,0.40
2007,03,09,02,33,1.00
2007,03,09,02,34,0.80
2007,03,09,02,35,1.30
2007,03,09,02,36,3.40
2007,03,09,02,37,3.20
2007,03,09,02,38,3.80
2007,03,09,02,39,3.60
2007,03,09,02,40,3.30
2007,03,09,02,41,3.20
2007,03,09,02,42,2.00
2007,03,09,02,43,0.10
2007,03,09,02,44,0.00
2007,03,09,02,45,0.00
2007,03,09,02,46,0.00
2007,03,09,02,47,0.00
2007,03,09,02,48,0.30
2007,03,09,02,49,0.80
2007,03,09,02,50,1.10
2007,03,09,02,51,0.60
2007,03,09,02,52,0.10
2007,03,09,02,53,0.00
2007,03,09,02,54,0.00
2007,03,09,02,55,0.00
2007,03,09,02,56,0.10
2007,03,09,02,57,0.20
2007,03,09,02,58,0.00
2007,03,09,02,59,0.00
2007,03,09,03,00,0.00
2007,03,09,03,01,0.00
2007,03,09,03,02,0.00
2007,03,09,03,03,0.00
2007,03,09,03,04,0.00
2007,03,09,03,05,0.00
2007,03,09,03,06,0.10
2007,03,09,03,07,0.10
2007,03,09,03,08,0.00
2007,03,09,03,09,0.00
2007,03,09,03,10,0.30
2007,03,09,03,11,0.00
2007,03,09,03,12,0.10
2007,03,09,03,13,0.20
2007,03,09,03,14,0.00
2007,03,09,03,15,0.00
2007,03,09,03,16,0.00
2007,03,09,03,17,0.00
2007,03,09,03,18,0.00
2007,03,09,03,19,0.30
2007,03,09,03,20,0.60
2007,03,09,03,21,0.10
2007,03,09,03,22,0.00
2007,03,09,03,23,0.00
2007,03,09,03,24,0.00
2007,03,09,03,25,0.00
2007,03,09,03,26,0.00
2007,03,09,03,27,0.00
2007,03,09,03,28,0.00
2007,03,09,03,29,0.00
2007,03,09,03,30,0.00
2007,03,09,03,31,0.00
2007,03,09,03,32,0.00
2007,03,09,03,33,0.00
2007,03,09,03,34,0.00
2007,03,09,03,35,0.00
2007,03,09,03,36,0.00
2007,03,09,03,37,0.00
2007,03,09,03,38,0.00
2007,03,09,03,39,0.00
2007,03,09,03,40,0.00
2007,03,09,03,41,0.00
2007,03,09,03,42,0.00
2007,03,09,03,43,0.00
2007,03,09,03,44,0.00
2007,03,09,03,45,1.10
2007,03,09,03,46,2.90
2007,03,09,03,47,3.70
2007,03,09,03,48,2.40
2007,03,09,03,49,2.00
2007,03,09,03,50,0.30
2007,03,09,03,51,0.00
2007,03,09,03,52,0.00
2007,03,09,03,53,0.00
2007,03,09,03,54,0.00
2007,03,09,03,55,0.00
2007,03,09,03,56,0.00
2007,03,09,03,57,0.10
2007,03,09,03,58,0.00
2007,03,09,03,59,0.00
2007,03,09,04,00,0.00
2007,03,09,04,01,0.00
2007,03,09,04,02,0.00
2007,03,09,04,03,0.00
2007,03,09,04,04,0.00
2007,03,09,04,05,0.00
2007,03,09,04,06,0.00
2007,03,09,04,07,0.00
2007,03,09,04,08,0.00
2007,03,09,04,09,0.00
2007,03,09,04,10,0.00
2007,03,09,04,11,0.00
2007,03,09,04,12,0.00
2007,03,09,04,13,0.00
2007,03,09,04,14,0.00
2007,03,09,04,15,0.00
2007,03,09,04,16,0.00
2007,03,09,04,17,0.00
2007,03,09,04,18,0.00
2007,03,09,04,19,0.00
2007,03,09,04,20,0.00
2007,03,09,04,21,0.00
2007,03,09,04,22,0.00
2007,03,09,04,23,0.00
2007,03,09,04,24,0.00
2007,03,09,04,25,0.00
2007,03,09,04,26,0.00
2007,03,09,04,27,0.00
2007,03,09,04,28,0.00
2007,03,09,04,29,0.00
2007,03,09,04,30,0.00
2007,03,09,04,31,0.00
2007,03,09,04,32,0.00
2007,03,09,04,33,0.00
2007,03,09,04,34,0.00
2007,03,09,04,35,0.00
2007,03,09,04,36,0.00
2007,03,09,04,37,0.00
2007,03,09,04,38,0.00
2007,03,09,04,39,0.00
2007,03,09,04,40,0.00
2007,03,09,04,41,0.00
2007,03,09,04,42,0.00
2007,03,09,04,43,0.00
2007,03,09,04,44,0.00
2007,03,09,04,45,0.00
2007,03,09,04,46,0.00
2007,03,09,04,47,0.00
2007,03,09,04,48,0.00
2007,03,09,04,49,0.00
2007,03,09,04,50,0.00
2007,03,09,04,51,0.00
2007,03,09,04,52,0.00
2007,03,09,04,53,0.00
2007,03,09,04,54,0.00
2007,03,09,04,55,0.00
2007,03,09,04,56,0.00
2007,03,09,04,57,0.00
2007,03,09,04,58,0.00
2007,03,09,04,59,0.00
2007,03,09,05,00,0.00
2007,03,09,05,01,0.00
2007,03,09,05,02,0.00
2007,03,09,05,03,0.00
2007,03,09,05,04,0.00
2007,03,09,05,05,0.00
2007,03,09,05,06,0.00
2007,03,09,05,07,0.70
2007,03,09,05,08,0.00
2007,03,09,05,09,0.00
2007,03,09,05,10,0.00
2007,03,09,05,11,0.00
2007,03,09,05,12,0.00
2007,03,09,05,13,0.00
2007,03,09,05,14,0.00
2007,03,09,05,15,0.00
2007,03,09,05,16,0.00
2007,03,09,05,17,0.00
2007,03,09,05,18,0.00
2007,03,09,05,19,0.00
2007,03,09,05,20,0.00
2007,03,09,05,21,0.00
2007,03,09,05,22,0.00
2007,03,09,05,23,0.00
2007,03,09,05,24,0.00
2007,03,09,05,25,0.00
2007,03,09,05,26,0.00
2007,03,09,05,27,0.00
2007,03,09,05,28,0.00
2007,03,09,05,29,0.00
2007,03,09,05,30,0.00
2007,03,09,05,31,0.00
2007,03,09,05,32,0.00
2007,03,09,05,33,0.00
2007,03,09,05,34,0.00
2007,03,09,05,35,0.00
2007,03,09,05,36,0.00
2007,03,09,05,37,0.00
2007,03,09,05,38,0.00
2007,03,09,05,39,0.00
2007,03,09,05,40,0.00
2007,03,09,05,41,0.00
2007,03,09,05,42,0.00
2007,03,09,05,43,0.00
2007,03,09,05,44,0.00
2007,03,09,05,45,0.00
2007,03,09,05,46,0.00
2007,03,09,05,47,0.00
2007,03,09,05,48,0.00
2007,03,09,05,49,0.00
2007,03,09,05,50,0.00
2007,03,09,05,51,0.00
2007,03,09,05,52,0.00
2007,03,09,05,53,0.00
2007,03,09,05,54,0.00
2007,03,09,05,55,0.00
2007,03,09,05,56,0.00
2007,03,09,05,57,0.00
2007,03,09,05,58,0.00
2007,03,09,05,59,0.00
2007,03,09,06,00,0.00
2007,03,09,06,01,0.00
2007,03,09,06,02,0.00
2007,03,09,06,03,0.00
2007,03,09,06,04,0.00
2007,03,09,06,05,1.30
2007,03,09,06,06,1.50
2007,03,09,06,07,2.40
2007,03,09,06,08,2.20
2007,03,09,06,09,0.90
2007,03,09,06,10,0.50
2007,03,09,06,11,1.60
2007,03,09,06,12,0.80
2007,03,09,06,13,0.00
2007,03,09,06,14,0.00
2007,03,09,06,15,0.00
2007,03,09,06,16,0.00
2007,03,09,06,17,0.00
2007,03,09,06,18,0.00
2007,03,09,06,19,0.00
2007,03,09,06,20,0.00
2007,03,09,06,21,0.00
2007,03,09,06,22,0.00
2007,03,09,06,23,0.00
2007,03,09,06,24,0.10
2007,03,09,06,25,0.10
2007,03,09,06,26,0.00
2007,03,09,06,27,0.40
2007,03,09,06,28,0.30
2007,03,09,06,29,0.00
2007,03,09,06,30,0.00
2007,03,09,06,31,0.00
2007,03,09,06,32,0.00
2007,03,09,06,33,0.20
2007,03,09,06,34,0.00
2007,03,09,06,35,0.00
2007,03,09,06,36,0.10
2007,03,09,06,37,0.10
2007,03,09,06,38,0.20
2007,03,09,06,39,1.00
2007,03,09,06,40,0.70
2007,03,09,06,41,0.10
2007,03,09,06,42,0.20
2007,03,09,06,43,0.20
2007,03,09,06,44,0.00
2007,03,09,06,45,0.00
2007,03,09,06,46,0.60
2007,03,09,06,47,2.30
2007,03,09,06,48,2.00
2007,03,09,06,49,1.80
2007,03,09,06,50,1.30
2007,03,09,06,51,0.40
2007,03,09,06,52,1.10
2007,03,09,06,53,0.90
2007,03,09,06,54,1.20
2007,03,09,06,55,0.50
2007,03,09,06,56,0.00
2007,03,09,06,57,0.40
2007,03,09,06,58,0.60
2007,03,09,06,59,0.20
2007,03,09,07,00,0.80
2007,03,09,07,01,1.90
2007,03,09,07,02,0.30
2007,03,09,07,03,0.00
2007,03,09,07,04,1.30
2007,03,09,07,05,1.00
2007,03,09,07,06,0.00
2007,03,09,07,07,0.40
2007,03,09,07,08,0.30
2007,03,09,07,09,0.80
2007,03,09,07,10,1.30
2007,03,09,07,11,2.00
2007,03,09,07,12,2.70
2007,03,09,07,13,4.70
2007,03,09,07,14,4.00
2007,03,09,07,15,3.50
2007,03,09,07,16,2.80
2007,03,09,07,17,2.60
2007,03,09,07,18,1.80
2007,03,09,07,19,1.50
2007,03,09,07,20,1.90
2007,03,09,07,21,1.40
2007,03,09,07,22,0.40
2007,03,09,07,23,0.60
2007,03,09,07,24,1.90
2007,03,09,07,25,1.40
2007,03,09,07,26,0.30
2007,03,09,07,27,0.10
2007,03,09,07,28,0.00
2007,03,09,07,29,0.00
2007,03,09,07,30,0.00
2007,03,09,07,31,0.40
2007,03,09,07,32,0.20
2007,03,09,07,33,0.00
2007,03,09,07,34,0.30
2007,03,09,07,35,1.30
2007,03,09,07,36,0.10
2007,03,09,07,37,0.00
2007,03,09,07,38,0.00
2007,03,09,07,39,0.00
2007,03,09,07,40,0.00
2007,03,09,07,41,0.00
2007,03,09,07,42,0.00
2007,03,09,07,43,0.10
2007,03,09,07,44,0.00
2007,03,09,07,45,0.50
2007,03,09,07,46,1.40
2007,03,09,07,47,2.40
2007,03,09,07,48,1.10
2007,03,09,07,49,2.10
2007,03,09,07,50,2.00
2007,03,09,07,51,0.50
2007,03,09,07,52,1.10
2007,03,09,07,53,2.00
2007,03,09,07,54,4.00
2007,03,09,07,55,2.70
2007,03,09,07,56,1.50
2007,03,09,07,57,1.50
2007,03,09,07,58,2.10
2007,03,09,07,59,0.30
2007,03,09,08,00,4.20
2007,03,09,08,01,4.40
2007,03,09,08,02,4.30
2007,03,09,08,03,4.30
2007,03,09,08,04,5.60
2007,03,09,08,05,4.60
2007,03,09,08,06,4.70
2007,03,09,08,07,4.40
2007,03,09,08,08,5.70
2007,03,09,08,09,6.40
2007,03,09,08,10,6.80
2007,03,09,08,11,7.20
2007,03,09,08,12,7.70
2007,03,09,08,13,5.20
2007,03,09,08,14,3.60
2007,03,09,08,15,4.10
2007,03,09,08,16,4.40
2007,03,09,08,17,7.50
2007,03,09,08,18,4.60
2007,03,09,08,19,2.60
2007,03,09,08,20,4.10
2007,03,09,08,21,2.90
2007,03,09,08,22,2.70
2007,03,09,08,23,2.70
2007,03,09,08,24,3.00
2007,03,09,08,25,1.10
2007,03,09,08,26,3.00
2007,03,09,08,27,3.90
2007,03,09,08,28,1.40
2007,03,09,08,29,1.00
2007,03,09,08,30,0.80
2007,03,09,08,31,3.40
2007,03,09,08,32,4.40
2007,03,09,08,33,3.10
2007,03,09,08,34,5.70
2007,03,09,08,35,3.50
2007,03,09,08,36,3.00
2007,03,09,08,37,5.30
2007,03,09,08,38,3.50
2007,03,09,08,39,1.40
2007,03,09,08,40,0.00
2007,03,09,08,41,3.10
2007,03,09,08,42,4.00
2007,03,09,08,43,5.10
2007,03,09,08,44,5.10
2007,03,09,08,45,3.00
2007,03,09,08,46,2.00
2007,03,09,08,47,3.40
2007,03,09,08,48,3.00
2007,03,09,08,49,4.30
2007,03,09,08,50,3.20
2007,03,09,08,51,4.00
2007,03,09,08,52,4.30
2007,03,09,08,53,3.30
2007,03,09,08,54,2.00
2007,03,09,08,55,4.00
2007,03,09,08,56,2.70
2007,03,09,08,57,3.50
2007,03,09,08,58,6.30
2007,03,09,08,59,4.20
2007,03,09,09,00,3.40
2007,03,09,09,01,4.70
2007,03,09,09,02,4.60
2007,03,09,09,03,4.20
2007,03,09,09,04,1.10
2007,03,09,09,05,0.00
2007,03,09,09,06,6.90
2007,03,09,09,07,5.90
2007,03,09,09,08,4.90
2007,03,09,09,09,4.70
2007,03,09,09,10,3.80
2007,03,09,09,11,4.70
2007,03,09,09,12,3.00
2007,03,09,09,13,3.30
2007,03,09,09,14,1.90
2007,03,09,09,15,1.10
2007,03,09,09,16,4.90
2007,03,09,09,17,6.10
2007,03,09,09,18,1.90
2007,03,09,09,19,2.40
2007,03,09,09,20,3.50
2007,03,09,09,21,3.40
2007,03,09,09,22,3.80
2007,03,09,09,23,5.60
2007,03,09,09,24,3.00
2007,03,09,09,25,4.30
2007,03,09,09,26,4.50
2007,03,09,09,27,3.50
2007,03,09,09,28,4.40
2007,03,09,09,29,4.50
2007,03,09,09,30,3.50
2007,03,09,09,31,5.60
2007,03,09,09,32,4.30
2007,03,09,09,33,4.30
2007,03,09,09,34,1.10
2007,03,09,09,35,1.40
2007,03,09,09,36,3.00
2007,03,09,09,37,3.00
2007,03,09,09,38,3.80
2007,03,09,09,39,3.00
2007,03,09,09,40,1.50
2007,03,09,09,41,1.90
2007,03,09,09,42,2.10
2007,03,09,09,43,5.20
2007,03,09,09,44,4.60
2007,03,09,09,45,5.30
2007,03,09,09,46,4.40
2007,03,09,09,47,4.50
2007,03,09,09,48,5.60
2007,03,09,09,49,6.90
2007,03,09,09,50,7.00
2007,03,09,09,51,5.20
2007,03,09,09,52,4.10
2007,03,09,09,53,6.50
2007,03,09,09,54,5.20
2007,03,09,09,55,4.10
2007,03,09,09,56,4.80
2007,03,09,09,57,2.90
2007,03,09,09,58,2.80
2007,03,09,09,59,5.10
2007,03,09,10,00,5.20
2007,03,09,10,01,5.80
2007,03,09,10,02,4.80
2007,03,09,10,03,3.00
2007,03,09,10,04,4.90
2007,03,09,10,05,4.70
2007,03,09,10,06,2.70
2007,03,09,10,07,4.50
2007,03,09,10,08,4.20
2007,03,09,10,09,6.00
2007,03,09,10,10,4.10
2007,03,09,10,11,4.70
2007,03,09,10,12,2.40
2007,03,09,10,13,5.10
2007,03,09,10,14,6.50
2007,03,09,10,15,7.90
2007,03,09,10,16,4.90
2007,03,09,10,17,5.60
2007,03,09,10,18,8.00
2007,03,09,10,19,9.40
2007,03,09,10,20,7.90
2007,03,09,10,21,5.80
2007,03,09,10,22,5.90
2007,03,09,10,23,6.80
2007,03,09,10,24,7.30
2007,03,09,10,25,5.40
2007,03,09,10,26,5.80
2007,03,09,10,27,6.80
2007,03,09,10,28,7.20
2007,03,09,10,29,7.10
2007,03,09,10,30,6.70
2007,03,09,10,31,8.20
2007,03,09,10,32,4.20
2007,03,09,10,33,2.80
2007,03,09,10,34,4.30
2007,03,09,10,35,3.20
2007,03,09,10,36,6.50
2007,03,09,10,37,10.50
2007,03,09,10,38,8.20
2007,03,09,10,39,4.00
2007,03,09,10,40,2.50
2007,03,09,10,41,2.00
2007,03,09,10,42,2.40
2007,03,09,10,43,2.00
2007,03,09,10,44,5.90
2007,03,09,10,45,6.90
2007,03,09,10,46,5.60
2007,03,09,10,47,6.40
2007,03,09,10,48,4.70
2007,03,09,10,49,11.10
2007,03,09,10,50,7.50
2007,03,09,10,51,4.90
2007,03,09,10,52,5.60
2007,03,09,10,53,8.10
2007,03,09,10,54,7.20
2007,03,09,10,55,7.50
2007,03,09,10,56,7.30
2007,03,09,10,57,4.70
2007,03,09,10,58,7.80
2007,03,09,10,59,4.70
2007,03,09,11,00,7.30
2007,03,09,11,01,6.20
2007,03,09,11,02,6.50
2007,03,09,11,03,2.60
2007,03,09,11,04,4.70
2007,03,09,11,05,2.30
2007,03,09,11,06,7.10
2007,03,09,11,07,7.00
2007,03,09,11,08,8.70
2007,03,09,11,09,7.10
2007,03,09,11,10,12.00
2007,03,09,11,11,7.60
2007,03,09,11,12,6.00
2007,03,09,11,13,8.10
2007,03,09,11,14,7.00
2007,03,09,11,15,7.70
2007,03,09,11,16,5.90
2007,03,09,11,17,5.00
2007,03,09,11,18,4.60
2007,03,09,11,19,5.00
2007,03,09,11,20,3.30
2007,03,09,11,21,3.20
2007,03,09,11,22,7.30
2007,03,09,11,23,6.20
2007,03,09,11,24,11.00
2007,03,09,11,25,9.30
2007,03,09,11,26,8.90
2007,03,09,11,27,8.10
2007,03,09,11,28,7.30
2007,03,09,11,29,10.10
2007,03,09,11,30,6.70
2007,03,09,11,31,6.50
2007,03,09,11,32,5.50
2007,03,09,11,33,3.70
2007,03,09,11,34,3.00
2007,03,09,11,35,1.00
2007,03,09,11,36,0.20
2007,03,09,11,37,2.70
2007,03,09,11,38,8.30
2007,03,09,11,39,6.50
2007,03,09,11,40,6.40
2007,03,09,11,41,6.20
2007,03,09,11,42,7.40
2007,03,09,11,43,7.90
2007,03,09,11,44,10.10
2007,03,09,11,45,8.40
2007,03,09,11,46,4.00
2007,03,09,11,47,2.60
2007,03,09,11,48,8.40
2007,03,09,11,49,10.50
2007,03,09,11,50,12.10
2007,03,09,11,51,12.60
2007,03,09,11,52,11.80
2007,03,09,11,53,6.60
2007,03,09,11,54,10.00
2007,03,09,11,55,10.30
2007,03,09,11,56,6.50
2007,03,09,11,57,10.10
2007,03,09,11,58,9.50
2007,03,09,11,59,9.90
2007,03,09,12,00,10.50
2007,03,09,12,01,8.40
2007,03,09,12,02,12.00
2007,03,09,12,03,9.30
2007,03,09,12,04,11.50
2007,03,09,12,05,12.10
2007,03,09,12,06,14.10
2007,03,09,12,07,12.30
2007,03,09,12,08,6.60
2007,03,09,12,09,11.40
2007,03,09,12,10,10.40
2007,03,09,12,11,13.70
2007,03,09,12,12,8.00
2007,03,09,12,13,12.50
2007,03,09,12,14,13.10
2007,03,09,12,15,8.40
2007,03,09,12,16,8.30
2007,03,09,12,17,6.60
2007,03,09,12,18,5.40
2007,03,09,12,19,8.50
2007,03,09,12,20,9.10
2007,03,09,12,21,8.90
2007,03,09,12,22,6.40
2007,03,09,12,23,8.40
2007,03,09,12,24,10.40
2007,03,09,12,25,12.40
2007,03,09,12,26,7.20
2007,03,09,12,27,6.00
2007,03,09,12,28,6.00
2007,03,09,12,29,5.90
2007,03,09,12,30,7.00
2007,03,09,12,31,7.70
2007,03,09,12,32,6.20
2007,03,09,12,33,11.20
2007,03,09,12,34,7.20
2007,03,09,12,35,4.10
2007,03,09,12,36,4.70
2007,03,09,12,37,7.50
2007,03,09,12,38,7.80
2007,03,09,12,39,9.40
2007,03,09,12,40,5.80
2007,03,09,12,41,5.30
2007,03,09,12,42,3.90
2007,03,09,12,43,4.50
2007,03,09,12,44,7.50
2007,03,09,12,45,5.00
2007,03,09,12,46,8.20
2007,03,09,12,47,6.80
2007,03,09,12,48,4.80
2007,03,09,12,49,7.50
2007,03,09,12,50,6.30
2007,03,09,12,51,5.20
2007,03,09,12,52,3.90
2007,03,09,12,53,6.70
2007,03,09,12,54,4.30
2007,03,09,12,55,8.30
2007,03,09,12,56,8.90
2007,03,09,12,57,8.50
2007,03,09,12,58,6.30
2007,03,09,12,59,6.60
2007,03,09,13,00,5.50
2007,03,09,13,01,4.30
2007,03,09,13,02,7.00
2007,03,09,13,03,8.40
2007,03,09,13,04,8.00
2007,03,09,13,05,6.80
2007,03,09,13,06,10.50
2007,03,09,13,07,8.10
2007,03,09,13,08,10.10
2007,03,09,13,09,9.60
2007,03,09,13,10,9.70
2007,03,09,13,11,9.30
2007,03,09,13,12,7.00
2007,03,09,13,13,13.80
2007,03,09,13,14,10.00
2007,03,09,13,15,5.20
2007,03,09,13,16,5.90
2007,03,09,13,17,7.70
2007,03,09,13,18,10.70
2007,03,09,13,19,11.00
2007,03,09,13,20,7.10
2007,03,09,13,21,4.40
2007,03,09,13,22,5.50
2007,03,09,13,23,3.60
2007,03,09,13,24,3.10
2007,03,09,13,25,4.80
2007,03,09,13,26,7.60
2007,03,09,13,27,5.30
2007,03,09,13,28,7.30
2007,03,09,13,29,9.60
2007,03,09,13,30,6.50
2007,03,09,13,31,7.70
2007,03,09,13,32,6.10
2007,03,09,13,33,3.90
2007,03,09,13,34,5.20
2007,03,09,13,35,5.90
2007,03,09,13,36,6.40
2007,03,09,13,37,8.70
2007,03,09,13,38,6.70
2007,03,09,13,39,7.10
2007,03,09,13,40,6.80
2007,03,09,13,41,7.30
2007,03,09,13,42,6.90
2007,03,09,13,43,5.80
2007,03,09,13,44,3.30
2007,03,09,13,45,5.70
2007,03,09,13,46,6.00
2007,03,09,13,47,8.00
2007,03,09,13,48,9.60
2007,03,09,13,49,6.00
2007,03,09,13,50,7.00
2007,03,09,13,51,7.50
2007,03,09,13,52,5.70
2007,03,09,13,53,6.70
2007,03,09,13,54,8.80
2007,03,09,13,55,5.90
2007,03,09,13,56,7.10
2007,03,09,13,57,8.60
2007,03,09,13,58,7.50
2007,03,09,13,59,3.90
2007,03,09,14,00,5.30
2007,03,09,14,01,8.00
2007,03,09,14,02,6.10
2007,03,09,14,03,8.90
2007,03,09,14,04,6.00
2007,03,09,14,05,4.50
2007,03,09,14,06,2.80
2007,03,09,14,07,1.70
2007,03,09,14,08,2.00
2007,03,09,14,09,6.20
2007,03,09,14,10,8.70
2007,03,09,14,11,8.80
2007,03,09,14,12,5.20
2007,03,09,14,13,5.30
2007,03,09,14,14,8.00
2007,03,09,14,15,9.60
2007,03,09,14,16,8.90
2007,03,09,14,17,8.80
2007,03,09,14,18,8.60
2007,03,09,14,19,9.90
2007,03,09,14,20,7.20
2007,03,09,14,21,7.10
2007,03,09,14,22,6.00
2007,03,09,14,23,8.10
2007,03,09,14,24,7.20
2007,03,09,14,25,5.80
2007,03,09,14,26,6.20
2007,03,09,14,27,6.20
2007,03,09,14,28,9.00
2007,03,09,14,29,8.70
2007,03,09,14,30,9.70
2007,03,09,14,31,7.80
2007,03,09,14,32,11.50
2007,03,09,14,33,8.00
2007,03,09,14,34,8.10
2007,03,09,14,35,7.80
2007,03,09,14,36,8.30
2007,03,09,14,37,7.50
2007,03,09,14,38,8.10
2007,03,09,14,39,7.50
2007,03,09,14,40,6.00
2007,03,09,14,41,7.20
2007,03,09,14,42,6.10
2007,03,09,14,43,8.40
2007,03,09,14,44,8.10
2007,03,09,14,45,7.40
2007,03,09,14,46,7.70
2007,03,09,14,47,8.70
2007,03,09,14,48,6.80
2007,03,09,14,49,7.30
2007,03,09,14,50,9.10
2007,03,09,14,51,6.70
2007,03,09,14,52,7.80
2007,03,09,14,53,8.20
2007,03,09,14,54,5.80
2007,03,09,14,55,10.40
2007,03,09,14,56,8.00
2007,03,09,14,57,9.50
2007,03,09,14,58,6.70
2007,03,09,14,59,5.60
2007,03,09,15,00,7.10
2007,03,09,15,01,4.70
2007,03,09,15,02,4.60
2007,03,09,15,03,6.00
2007,03,09,15,04,7.20
2007,03,09,15,05,3.00
2007,03,09,15,06,6.10
2007,03,09,15,07,7.30
2007,03,09,15,08,6.90
2007,03,09,15,09,8.90
2007,03,09,15,10,9.30
2007,03,09,15,11,10.10
2007,03,09,15,12,8.30
2007,03,09,15,13,8.80
2007,03,09,15,14,10.40
2007,03,09,15,15,9.40
2007,03,09,15,16,7.40
2007,03,09,15,17,8.20
2007,03,09,15,18,8.90
2007,03,09,15,19,8.60
2007,03,09,15,20,8.10
2007,03,09,15,21,8.90
2007,03,09,15,22,7.60
2007,03,09,15,23,8.00
2007,03,09,15,24,9.90
2007,03,09,15,25,12.70
2007,03,09,15,26,11.20
2007,03,09,15,27,8.60
2007,03,09,15,28,6.90
2007,03,09,15,29,7.50
2007,03,09,15,30,7.60
2007,03,09,15,31,8.70
2007,03,09,15,32,5.70
2007,03,09,15,33,7.50
2007,03,09,15,34,8.90
2007,03,09,15,35,7.60
2007,03,09,15,36,6.10
2007,03,09,15,37,7.50
2007,03,09,15,38,7.40
2007,03,09,15,39,6.70
2007,03,09,15,40,7.40
2007,03,09,15,41,7.70
2007,03,09,15,42,8.10
2007,03,09,15,43,6.30
2007,03,09,15,44,6.40
2007,03,09,15,45,7.20
2007,03,09,15,46,5.10
2007,03,09,15,47,5.90
2007,03,09,15,48,6.10
2007,03,09,15,49,7.30
2007,03,09,15,50,8.80
2007,03,09,15,51,7.70
2007,03,09,15,52,5.30
2007,03,09,15,53,7.50
2007,03,09,15,54,8.20
2007,03,09,15,55,4.70
2007,03,09,15,56,7.60
2007,03,09,15,57,10.70
2007,03,09,15,58,7.70
2007,03,09,15,59,7.20
2007,03,09,16,00,8.60
2007,03,09,16,01,8.10
2007,03,09,16,02,6.10
2007,03,09,16,03,8.70
2007,03,09,16,04,11.20
2007,03,09,16,05,5.70
2007,03,09,16,06,7.40
2007,03,09,16,07,6.50
2007,03,09,16,08,7.60
2007,03,09,16,09,6.10
2007,03,09,16,10,5.10
2007,03,09,16,11,5.90
2007,03,09,16,12,7.00
2007,03,09,16,13,7.00
2007,03,09,16,14,4.60
2007,03,09,16,15,5.40
2007,03,09,16,16,5.90
2007,03,09,16,17,4.70
2007,03,09,16,18,6.70
2007,03,09,16,19,8.00
2007,03,09,16,20,6.20
2007,03,09,16,21,7.40
2007,03,09,16,22,6.40
2007,03,09,16,23,7.20
2007,03,09,16,24,4.80
2007,03,09,16,25,3.90
2007,03,09,16,26,9.70
2007,03,09,16,27,5.80
2007,03,09,16,28,3.30
2007,03,09,16,29,4.50
2007,03,09,16,30,4.60
2007,03,09,16,31,5.70
2007,03,09,16,32,5.80
2007,03,09,16,33,8.50
2007,03,09,16,34,6.40
2007,03,09,16,35,6.60
2007,03,09,16,36,3.20
2007,03,09,16,37,5.00
2007,03,09,16,38,5.60
2007,03,09,16,39,8.00
2007,03,09,16,40,7.40
2007,03,09,16,41,4.70
2007,03,09,16,42,6.60
2007,03,09,16,43,3.30
2007,03,09,16,44,5.40
2007,03,09,16,45,8.10
2007,03,09,16,46,3.60
2007,03,09,16,47,1.40
2007,03,09,16,48,5.90
2007,03,09,16,49,5.00
2007,03,09,16,50,1.80
2007,03,09,16,51,1.50
2007,03,09,16,52,3.40
2007,03,09,16,53,0.50
2007,03,09,16,54,0.30
2007,03,09,16,55,1.10
2007,03,09,16,56,3.00
2007,03,09,16,57,3.70
2007,03,09,16,58,3.50
2007,03,09,16,59,0.40
2007,03,09,17,00,3.90
2007,03,09,17,01,1.90
2007,03,09,17,02,3.60
2007,03,09,17,03,2.90
2007,03,09,17,04,2.20
2007,03,09,17,05,0.30
2007,03,09,17,06,1.50
2007,03,09,17,07,4.70
2007,03,09,17,08,8.10
2007,03,09,17,09,3.70
2007,03,09,17,10,3.60
2007,03,09,17,11,3.00
2007,03,09,17,12,3.60
2007,03,09,17,13,4.00
2007,03,09,17,14,3.90
2007,03,09,17,15,5.40
2007,03,09,17,16,4.70
2007,03,09,17,17,4.30
2007,03,09,17,18,2.80
2007,03,09,17,19,4.50
2007,03,09,17,20,3.40
2007,03,09,17,21,1.60
2007,03,09,17,22,2.00
2007,03,09,17,23,0.30
2007,03,09,17,24,1.40
2007,03,09,17,25,6.60
2007,03,09,17,26,3.90
2007,03,09,17,27,3.80
2007,03,09,17,28,1.30
2007,03,09,17,29,3.40
2007,03,09,17,30,3.40
2007,03,09,17,31,2.30
2007,03,09,17,32,1.40
2007,03,09,17,33,0.00
2007,03,09,17,34,0.00
2007,03,09,17,35,0.00
2007,03,09,17,36,0.20
2007,03,09,17,37,1.80
2007,03,09,17,38,1.70
2007,03,09,17,39,3.00
2007,03,09,17,40,2.90
2007,03,09,17,41,1.90
2007,03,09,17,42,2.30
2007,03,09,17,43,1.40
2007,03,09,17,44,0.00
2007,03,09,17,45,1.30
2007,03,09,17,46,1.00
2007,03,09,17,47,3.70
2007,03,09,17,48,3.90
2007,03,09,17,49,2.00
2007,03,09,17,50,0.40
2007,03,09,17,51,1.40
2007,03,09,17,52,1.10
2007,03,09,17,53,0.00
2007,03,09,17,54,0.20
2007,03,09,17,55,1.10
2007,03,09,17,56,0.50
2007,03,09,17,57,0.90
2007,03,09,17,58,0.10
2007,03,09,17,59,0.00
2007,03,09,18,00,0.00
2007,03,09,18,01,0.00
2007,03,09,18,02,0.20
2007,03,09,18,03,0.10
2007,03,09,18,04,1.40